Year,Month,Day,Hour,Minute,Value (Times are PST for windgust in km/hr)
2019,10,16,00,00,22.50
2019,10,16,00,01,14.50
2019,10,16,00,02,12.90
2019,10,16,00,03,12.90
2019,10,16,00,04,6.40
2019,10,16,00,05,20.90
2019,10,16,00,06,16.10
2019,10,16,00,07,16.10
2019,10,16,00,08,17.70
2019,10,16,00,09,14.50
2019,10,16,00,10,17.70
2019,10,16,00,11,20.90
2019,10,16,00,12,25.70
2019,10,16,00,13,17.70
2019,10,16,00,14,17.70
2019,10,16,00,15,16.10
2019,10,16,00,16,16.10
2019,10,16,00,17,12.90
2019,10,16,00,18,14.50
2019,10,16,00,19,12.90
2019,10,16,00,20,16.10
2019,10,16,00,21,14.50
2019,10,16,00,22,14.50
2019,10,16,00,23,22.50
2019,10,16,00,24,16.10
2019,10,16,00,25,12.90
2019,10,16,00,26,14.50
2019,10,16,00,27,17.70
2019,10,16,00,28,17.70
2019,10,16,00,29,17.70
2019,10,16,00,30,12.90
2019,10,16,00,31,17.70
2019,10,16,00,32,20.90
2019,10,16,00,33,14.50
2019,10,16,00,34,16.10
2019,10,16,00,35,14.50
2019,10,16,00,36,11.30
2019,10,16,00,37,16.10
2019,10,16,00,38,6.40
2019,10,16,00,39,11.30
2019,10,16,00,40,14.50
2019,10,16,00,41,19.30
2019,10,16,00,42,17.70
2019,10,16,00,43,17.70
2019,10,16,00,44,17.70
2019,10,16,00,45,11.30
2019,10,16,00,46,16.10
2019,10,16,00,47,14.50
2019,10,16,00,48,11.30
2019,10,16,00,49,11.30
2019,10,16,00,50,9.60
2019,10,16,00,51,14.50
2019,10,16,00,52,16.10
2019,10,16,00,53,11.30
2019,10,16,00,54,12.90
2019,10,16,00,55,14.50
2019,10,16,00,56,12.90
2019,10,16,00,57,16.10
2019,10,16,00,58,14.50
2019,10,16,00,59,12.90
2019,10,16,01,00,11.30
2019,10,16,01,01,8.10
2019,10,16,01,02,20.90
2019,10,16,01,03,8.10
2019,10,16,01,04,12.90
2019,10,16,01,05,14.50
2019,10,16,01,06,11.30
2019,10,16,01,07,16.10
2019,10,16,01,08,11.30
2019,10,16,01,09,14.50
2019,10,16,01,10,11.30
2019,10,16,01,11,6.40
2019,10,16,01,12,12.90
2019,10,16,01,13,14.50
2019,10,16,01,14,14.50
2019,10,16,01,15,12.90
2019,10,16,01,16,16.10
2019,10,16,01,17,16.10
2019,10,16,01,18,14.50
2019,10,16,01,19,9.60
2019,10,16,01,20,11.30
2019,10,16,01,21,9.60
2019,10,16,01,22,19.30
2019,10,16,01,23,17.70
2019,10,16,01,24,14.50
2019,10,16,01,25,16.10
2019,10,16,01,26,6.40
2019,10,16,01,27,24.20
2019,10,16,01,28,17.70
2019,10,16,01,29,12.90
2019,10,16,01,30,12.90
2019,10,16,01,31,17.70
2019,10,16,01,32,12.90
2019,10,16,01,33,14.50
2019,10,16,01,34,11.30
2019,10,16,01,35,16.10
2019,10,16,01,36,16.10
2019,10,16,01,37,16.10
2019,10,16,01,38,6.40
2019,10,16,01,39,12.90
2019,10,16,01,40,6.40
2019,10,16,01,41,17.70
2019,10,16,01,42,19.30
2019,10,16,01,43,16.10
2019,10,16,01,44,14.50
2019,10,16,01,45,8.10
2019,10,16,01,46,11.30
2019,10,16,01,47,9.60
2019,10,16,01,48,6.40
2019,10,16,01,49,25.70
2019,10,16,01,50,16.10
2019,10,16,01,51,25.70
2019,10,16,01,52,19.30
2019,10,16,01,53,9.60
2019,10,16,01,54,16.10
2019,10,16,01,55,16.10
2019,10,16,01,56,11.30
2019,10,16,01,57,16.10
2019,10,16,01,58,11.30
2019,10,16,01,59,12.90
2019,10,16,02,00,12.90
2019,10,16,02,01,20.90
2019,10,16,02,02,19.30
2019,10,16,02,03,17.70
2019,10,16,02,04,12.90
2019,10,16,02,05,16.10
2019,10,16,02,06,8.10
2019,10,16,02,07,16.10
2019,10,16,02,08,14.50
2019,10,16,02,09,11.30
2019,10,16,02,10,14.50
2019,10,16,02,11,20.90
2019,10,16,02,12,16.10
2019,10,16,02,13,14.50
2019,10,16,02,14,12.90
2019,10,16,02,15,12.90
2019,10,16,02,16,12.90
2019,10,16,02,17,11.30
2019,10,16,02,18,9.60
2019,10,16,02,19,6.40
2019,10,16,02,20,12.90
2019,10,16,02,21,9.60
2019,10,16,02,22,12.90
2019,10,16,02,23,14.50
2019,10,16,02,24,19.30
2019,10,16,02,25,19.30
2019,10,16,02,26,19.30
2019,10,16,02,27,17.70
2019,10,16,02,28,19.30
2019,10,16,02,29,20.90
2019,10,16,02,30,16.10
2019,10,16,02,31,25.70
2019,10,16,02,32,17.70
2019,10,16,02,33,24.20
2019,10,16,02,34,14.50
2019,10,16,02,35,14.50
2019,10,16,02,36,19.30
2019,10,16,02,37,14.50
2019,10,16,02,38,17.70
2019,10,16,02,39,17.70
2019,10,16,02,40,12.90
2019,10,16,02,41,16.10
2019,10,16,02,42,19.30
2019,10,16,02,43,27.40
2019,10,16,02,44,22.50
2019,10,16,02,45,25.70
2019,10,16,02,46,16.10
2019,10,16,02,47,20.90
2019,10,16,02,48,19.30
2019,10,16,02,49,17.70
2019,10,16,02,50,14.50
2019,10,16,02,51,8.10
2019,10,16,02,52,14.50
2019,10,16,02,53,12.90
2019,10,16,02,54,8.10
2019,10,16,02,55,9.60
2019,10,16,02,56,12.90
2019,10,16,02,57,11.30
2019,10,16,02,58,24.20
2019,10,16,02,59,19.30
2019,10,16,03,00,16.10
2019,10,16,03,01,32.20
2019,10,16,03,02,22.50
2019,10,16,03,03,9.60
2019,10,16,03,04,16.10
2019,10,16,03,05,14.50
2019,10,16,03,06,12.90
2019,10,16,03,07,14.50
2019,10,16,03,08,14.50
2019,10,16,03,09,16.10
2019,10,16,03,10,19.30
2019,10,16,03,11,22.50
2019,10,16,03,12,19.30
2019,10,16,03,13,11.30
2019,10,16,03,14,16.10
2019,10,16,03,15,25.70
2019,10,16,03,16,19.30
2019,10,16,03,17,16.10
2019,10,16,03,18,24.20
2019,10,16,03,19,29.00
2019,10,16,03,20,20.90
2019,10,16,03,21,24.20
2019,10,16,03,22,19.30
2019,10,16,03,23,19.30
2019,10,16,03,24,29.00
2019,10,16,03,25,20.90
2019,10,16,03,26,17.70
2019,10,16,03,27,30.60
2019,10,16,03,28,11.30
2019,10,16,03,29,24.20
2019,10,16,03,30,27.40
2019,10,16,03,31,27.40
2019,10,16,03,32,22.50
2019,10,16,03,33,22.50
2019,10,16,03,34,16.10
2019,10,16,03,35,12.90
2019,10,16,03,36,27.40
2019,10,16,03,37,20.90
2019,10,16,03,38,20.90
2019,10,16,03,39,30.60
2019,10,16,03,40,22.50
2019,10,16,03,41,27.40
2019,10,16,03,42,25.70
2019,10,16,03,43,12.90
2019,10,16,03,44,20.90
2019,10,16,03,45,17.70
2019,10,16,03,46,20.90
2019,10,16,03,47,19.30
2019,10,16,03,48,27.40
2019,10,16,03,49,22.50
2019,10,16,03,50,20.90
2019,10,16,03,51,35.40
2019,10,16,03,52,22.50
2019,10,16,03,53,27.40
2019,10,16,03,54,33.80
2019,10,16,03,55,22.50
2019,10,16,03,56,27.40
2019,10,16,03,57,40.20
2019,10,16,03,58,24.20
2019,10,16,03,59,30.60
2019,10,16,04,00,37.00
2019,10,16,04,01,32.20
2019,10,16,04,02,32.20
2019,10,16,04,03,24.20
2019,10,16,04,04,22.50
2019,10,16,04,05,20.90
2019,10,16,04,06,22.50
2019,10,16,04,07,24.20
2019,10,16,04,08,29.00
2019,10,16,04,09,19.30
2019,10,16,04,10,32.20
2019,10,16,04,11,27.40
2019,10,16,04,12,29.00
2019,10,16,04,13,24.20
2019,10,16,04,14,17.70
2019,10,16,04,15,25.70
2019,10,16,04,16,30.60
2019,10,16,04,17,30.60
2019,10,16,04,18,19.30
2019,10,16,04,19,19.30
2019,10,16,04,20,20.90
2019,10,16,04,21,19.30
2019,10,16,04,22,35.40
2019,10,16,04,23,29.00
2019,10,16,04,24,19.30
2019,10,16,04,25,24.20
2019,10,16,04,26,22.50
2019,10,16,04,27,35.40
2019,10,16,04,28,27.40
2019,10,16,04,29,22.50
2019,10,16,04,30,24.20
2019,10,16,04,31,17.70
2019,10,16,04,32,32.20
2019,10,16,04,33,24.20
2019,10,16,04,34,19.30
2019,10,16,04,35,17.70
2019,10,16,04,36,27.40
2019,10,16,04,37,14.50
2019,10,16,04,38,20.90
2019,10,16,04,39,19.30
2019,10,16,04,40,22.50
2019,10,16,04,41,16.10
2019,10,16,04,42,27.40
2019,10,16,04,43,16.10
2019,10,16,04,44,27.40
2019,10,16,04,45,24.20
2019,10,16,04,46,22.50
2019,10,16,04,47,16.10
2019,10,16,04,48,32.20
2019,10,16,04,49,17.70
2019,10,16,04,50,27.40
2019,10,16,04,51,25.70
2019,10,16,04,52,30.60
2019,10,16,04,53,38.60
2019,10,16,04,54,24.20
2019,10,16,04,55,20.90
2019,10,16,04,56,12.90
2019,10,16,04,57,24.20
2019,10,16,04,58,32.20
2019,10,16,04,59,27.40
2019,10,16,05,00,16.10
2019,10,16,05,01,27.40
2019,10,16,05,02,24.20
2019,10,16,05,03,16.10
2019,10,16,05,04,16.10
2019,10,16,05,05,22.50
2019,10,16,05,06,19.30
2019,10,16,05,07,17.70
2019,10,16,05,08,32.20
2019,10,16,05,09,25.70
2019,10,16,05,10,29.00
2019,10,16,05,11,16.10
2019,10,16,05,12,16.10
2019,10,16,05,13,22.50
2019,10,16,05,14,24.20
2019,10,16,05,15,16.10
2019,10,16,05,16,22.50
2019,10,16,05,17,20.90
2019,10,16,05,18,17.70
2019,10,16,05,19,30.60
2019,10,16,05,20,29.00
2019,10,16,05,21,35.40
2019,10,16,05,22,19.30
2019,10,16,05,23,19.30
2019,10,16,05,24,33.80
2019,10,16,05,25,33.80
2019,10,16,05,26,22.50
2019,10,16,05,27,30.60
2019,10,16,05,28,24.20
2019,10,16,05,29,29.00
2019,10,16,05,30,25.70
2019,10,16,05,31,24.20
2019,10,16,05,32,22.50
2019,10,16,05,33,27.40
2019,10,16,05,34,40.20
2019,10,16,05,35,30.60
2019,10,16,05,36,24.20
2019,10,16,05,37,20.90
2019,10,16,05,38,33.80
2019,10,16,05,39,24.20
2019,10,16,05,40,19.30
2019,10,16,05,41,22.50
2019,10,16,05,42,35.40
2019,10,16,05,43,19.30
2019,10,16,05,44,32.20
2019,10,16,05,45,32.20
2019,10,16,05,46,49.90
2019,10,16,05,47,35.40
2019,10,16,05,48,45.10
2019,10,16,05,49,29.00
2019,10,16,05,50,27.40
2019,10,16,05,51,32.20
2019,10,16,05,52,32.20
2019,10,16,05,53,27.40
2019,10,16,05,54,25.70
2019,10,16,05,55,17.70
2019,10,16,05,56,29.00
2019,10,16,05,57,22.50
2019,10,16,05,58,30.60
2019,10,16,05,59,37.00
2019,10,16,06,00,29.00
2019,10,16,06,01,32.20
2019,10,16,06,02,32.20
2019,10,16,06,03,22.50
2019,10,16,06,04,24.20
2019,10,16,06,05,45.10
2019,10,16,06,06,22.50
2019,10,16,06,07,27.40
2019,10,16,06,08,27.40
2019,10,16,06,09,29.00
2019,10,16,06,10,19.30
2019,10,16,06,11,41.80
2019,10,16,06,12,32.20
2019,10,16,06,13,17.70
2019,10,16,06,14,38.60
2019,10,16,06,15,25.70
2019,10,16,06,16,32.20
2019,10,16,06,17,29.00
2019,10,16,06,18,24.20
2019,10,16,06,19,53.10
2019,10,16,06,20,27.40
2019,10,16,06,21,29.00
2019,10,16,06,22,19.30
2019,10,16,06,23,25.70
2019,10,16,06,24,30.60
2019,10,16,06,25,20.90
2019,10,16,06,26,30.60
2019,10,16,06,27,35.40
2019,10,16,06,28,25.70
2019,10,16,06,29,30.60
2019,10,16,06,30,22.50
2019,10,16,06,31,19.30
2019,10,16,06,32,19.30
2019,10,16,06,33,46.70
2019,10,16,06,34,56.30
2019,10,16,06,35,35.40
2019,10,16,06,36,27.40
2019,10,16,06,37,37.00
2019,10,16,06,38,35.40
2019,10,16,06,39,20.90
2019,10,16,06,40,19.30
2019,10,16,06,41,32.20
2019,10,16,06,42,22.50
2019,10,16,06,43,29.00
2019,10,16,06,44,27.40
2019,10,16,06,45,37.00
2019,10,16,06,46,30.60
2019,10,16,06,47,37.00
2019,10,16,06,48,27.40
2019,10,16,06,49,29.00
2019,10,16,06,50,38.60
2019,10,16,06,51,38.60
2019,10,16,06,52,56.30
2019,10,16,06,53,25.70
2019,10,16,06,54,29.00
2019,10,16,06,55,25.70
2019,10,16,06,56,32.20
2019,10,16,06,57,37.00
2019,10,16,06,58,24.20
2019,10,16,06,59,29.00
2019,10,16,07,00,24.20
2019,10,16,07,01,29.00
2019,10,16,07,02,35.40
2019,10,16,07,03,32.20
2019,10,16,07,04,33.80
2019,10,16,07,05,25.70
2019,10,16,07,06,32.20
2019,10,16,07,07,33.80
2019,10,16,07,08,37.00
2019,10,16,07,09,37.00
2019,10,16,07,10,38.60
2019,10,16,07,11,37.00
2019,10,16,07,12,32.20
2019,10,16,07,13,32.20
2019,10,16,07,14,35.40
2019,10,16,07,15,35.40
2019,10,16,07,16,43.50
2019,10,16,07,17,40.20
2019,10,16,07,18,43.50
2019,10,16,07,19,49.90
2019,10,16,07,20,25.70
2019,10,16,07,21,29.00
2019,10,16,07,22,24.20
2019,10,16,07,23,25.70
2019,10,16,07,24,25.70
2019,10,16,07,25,27.40
2019,10,16,07,26,41.80
2019,10,16,07,27,32.20
2019,10,16,07,28,33.80
2019,10,16,07,29,27.40
2019,10,16,07,30,38.60
2019,10,16,07,31,30.60
2019,10,16,07,32,27.40
2019,10,16,07,33,20.90
2019,10,16,07,34,19.30
2019,10,16,07,35,33.80
2019,10,16,07,36,30.60
2019,10,16,07,37,37.00
2019,10,16,07,38,24.20
2019,10,16,07,39,20.90
2019,10,16,07,40,22.50
2019,10,16,07,41,25.70
2019,10,16,07,42,22.50
2019,10,16,07,43,24.20
2019,10,16,07,44,29.00
2019,10,16,07,45,29.00
2019,10,16,07,46,30.60
2019,10,16,07,47,24.20
2019,10,16,07,48,25.70
2019,10,16,07,49,27.40
2019,10,16,07,50,22.50
2019,10,16,07,51,30.60
2019,10,16,07,52,24.20
2019,10,16,07,53,30.60
2019,10,16,07,54,24.20
2019,10,16,07,55,30.60
2019,10,16,07,56,22.50
2019,10,16,07,57,37.00
2019,10,16,07,58,25.70
2019,10,16,07,59,37.00
2019,10,16,08,00,30.60
2019,10,16,08,01,24.20
2019,10,16,08,02,24.20
2019,10,16,08,03,24.20
2019,10,16,08,04,30.60
2019,10,16,08,05,32.20
2019,10,16,08,06,37.00
2019,10,16,08,07,27.40
2019,10,16,08,08,33.80
2019,10,16,08,09,22.50
2019,10,16,08,10,27.40
2019,10,16,08,11,22.50
2019,10,16,08,12,32.20
2019,10,16,08,13,33.80
2019,10,16,08,14,22.50
2019,10,16,08,15,32.20
2019,10,16,08,16,37.00
2019,10,16,08,17,35.40
2019,10,16,08,18,35.40
2019,10,16,08,19,32.20
2019,10,16,08,20,25.70
2019,10,16,08,21,27.40
2019,10,16,08,22,29.00
2019,10,16,08,23,20.90
2019,10,16,08,24,24.20
2019,10,16,08,25,24.20
2019,10,16,08,26,19.30
2019,10,16,08,27,20.90
2019,10,16,08,28,12.90
2019,10,16,08,29,19.30
2019,10,16,08,30,33.80
2019,10,16,08,31,17.70
2019,10,16,08,32,20.90
2019,10,16,08,33,30.60
2019,10,16,08,34,19.30
2019,10,16,08,35,24.20
2019,10,16,08,36,22.50
2019,10,16,08,37,27.40
2019,10,16,08,38,25.70
2019,10,16,08,39,22.50
2019,10,16,08,40,12.90
2019,10,16,08,41,12.90
2019,10,16,08,42,22.50
2019,10,16,08,43,19.30
2019,10,16,08,44,27.40
2019,10,16,08,45,30.60
2019,10,16,08,46,33.80
2019,10,16,08,47,20.90
2019,10,16,08,48,20.90
2019,10,16,08,49,27.40
2019,10,16,08,50,24.20
2019,10,16,08,51,35.40
2019,10,16,08,52,45.10
2019,10,16,08,53,41.80
2019,10,16,08,54,33.80
2019,10,16,08,55,29.00
2019,10,16,08,56,35.40
2019,10,16,08,57,25.70
2019,10,16,08,58,25.70
2019,10,16,08,59,24.20
2019,10,16,09,00,24.20
2019,10,16,09,01,17.70
2019,10,16,09,02,30.60
2019,10,16,09,03,40.20
2019,10,16,09,04,19.30
2019,10,16,09,05,40.20
2019,10,16,09,06,22.50
2019,10,16,09,07,24.20
2019,10,16,09,08,33.80
2019,10,16,09,09,33.80
2019,10,16,09,10,19.30
2019,10,16,09,11,43.50
2019,10,16,09,12,37.00
2019,10,16,09,13,46.70
2019,10,16,09,14,27.40
2019,10,16,09,15,37.00
2019,10,16,09,16,30.60
2019,10,16,09,17,25.70
2019,10,16,09,18,33.80
2019,10,16,09,19,37.00
2019,10,16,09,20,41.80
2019,10,16,09,21,32.20
2019,10,16,09,22,29.00
2019,10,16,09,23,48.30
2019,10,16,09,24,33.80
2019,10,16,09,25,27.40
2019,10,16,09,26,40.20
2019,10,16,09,27,37.00
2019,10,16,09,28,40.20
2019,10,16,09,29,25.70
2019,10,16,09,30,25.70
2019,10,16,09,31,24.20
2019,10,16,09,32,32.20
2019,10,16,09,33,29.00
2019,10,16,09,34,17.70
2019,10,16,09,35,33.80
2019,10,16,09,36,32.20
2019,10,16,09,37,12.90
2019,10,16,09,38,19.30
2019,10,16,09,39,45.10
2019,10,16,09,40,51.50
2019,10,16,09,41,20.90
2019,10,16,09,42,16.10
2019,10,16,09,43,22.50
2019,10,16,09,44,16.10
2019,10,16,09,45,30.60
2019,10,16,09,46,33.80
2019,10,16,09,47,38.60
2019,10,16,09,48,27.40
2019,10,16,09,49,25.70
2019,10,16,09,50,22.50
2019,10,16,09,51,22.50
2019,10,16,09,52,20.90
2019,10,16,09,53,30.60
2019,10,16,09,54,22.50
2019,10,16,09,55,20.90
2019,10,16,09,56,32.20
2019,10,16,09,57,37.00
2019,10,16,09,58,24.20
2019,10,16,09,59,27.40
2019,10,16,10,00,33.80
2019,10,16,10,01,37.00
2019,10,16,10,02,25.70
2019,10,16,10,03,29.00
2019,10,16,10,04,24.20
2019,10,16,10,05,32.20
2019,10,16,10,06,29.00
2019,10,16,10,07,27.40
2019,10,16,10,08,37.00
2019,10,16,10,09,41.80
2019,10,16,10,10,29.00
2019,10,16,10,11,38.60
2019,10,16,10,12,22.50
2019,10,16,10,13,19.30
2019,10,16,10,14,19.30
2019,10,16,10,15,22.50
2019,10,16,10,16,17.70
2019,10,16,10,17,22.50
2019,10,16,10,18,17.70
2019,10,16,10,19,25.70
2019,10,16,10,20,33.80
2019,10,16,10,21,20.90
2019,10,16,10,22,17.70
2019,10,16,10,23,24.20
2019,10,16,10,24,24.20
2019,10,16,10,25,22.50
2019,10,16,10,26,33.80
2019,10,16,10,27,22.50
2019,10,16,10,28,24.20
2019,10,16,10,29,25.70
2019,10,16,10,30,24.20
2019,10,16,10,31,29.00
2019,10,16,10,32,25.70
2019,10,16,10,33,29.00
2019,10,16,10,34,37.00
2019,10,16,10,35,16.10
2019,10,16,10,36,38.60
2019,10,16,10,37,22.50
2019,10,16,10,38,27.40
2019,10,16,10,39,22.50
2019,10,16,10,40,38.60
2019,10,16,10,41,20.90
2019,10,16,10,42,41.80
2019,10,16,10,43,25.70
2019,10,16,10,44,35.40
2019,10,16,10,45,24.20
2019,10,16,10,46,22.50
2019,10,16,10,47,19.30
2019,10,16,10,48,20.90
2019,10,16,10,49,27.40
2019,10,16,10,50,24.20
2019,10,16,10,51,29.00
2019,10,16,10,52,9.60
2019,10,16,10,53,22.50
2019,10,16,10,54,22.50
2019,10,16,10,55,12.90
2019,10,16,10,56,40.20
2019,10,16,10,57,29.00
2019,10,16,10,58,24.20
2019,10,16,10,59,14.50
2019,10,16,11,00,32.20
2019,10,16,11,01,24.20
2019,10,16,11,02,19.30
2019,10,16,11,03,24.20
2019,10,16,11,04,20.90
2019,10,16,11,05,14.50
2019,10,16,11,06,19.30
2019,10,16,11,07,22.50
2019,10,16,11,08,43.50
2019,10,16,11,09,41.80
2019,10,16,11,10,30.60
2019,10,16,11,11,25.70
2019,10,16,11,12,25.70
2019,10,16,11,13,24.20
2019,10,16,11,14,43.50
2019,10,16,11,15,20.90
2019,10,16,11,16,35.40
2019,10,16,11,17,20.90
2019,10,16,11,18,27.40
2019,10,16,11,19,22.50
2019,10,16,11,20,22.50
2019,10,16,11,21,25.70
2019,10,16,11,22,17.70
2019,10,16,11,23,27.40
2019,10,16,11,24,24.20
2019,10,16,11,25,35.40
2019,10,16,11,26,33.80
2019,10,16,11,27,35.40
2019,10,16,11,28,25.70
2019,10,16,11,29,30.60
2019,10,16,11,30,22.50
2019,10,16,11,31,32.20
2019,10,16,11,32,24.20
2019,10,16,11,33,27.40
2019,10,16,11,34,38.60
2019,10,16,11,35,32.20
2019,10,16,11,36,29.00
2019,10,16,11,37,24.20
2019,10,16,11,38,17.70
2019,10,16,11,39,19.30
2019,10,16,11,40,27.40
2019,10,16,11,41,33.80
2019,10,16,11,42,33.80
2019,10,16,11,43,24.20
2019,10,16,11,44,20.90
2019,10,16,11,45,37.00
2019,10,16,11,46,22.50
2019,10,16,11,47,27.40
2019,10,16,11,48,14.50
2019,10,16,11,49,25.70
2019,10,16,11,50,32.20
2019,10,16,11,51,30.60
2019,10,16,11,52,22.50
2019,10,16,11,53,35.40
2019,10,16,11,54,27.40
2019,10,16,11,55,30.60
2019,10,16,11,56,20.90
2019,10,16,11,57,38.60
2019,10,16,11,58,24.20
2019,10,16,11,59,27.40
2019,10,16,12,00,17.70
2019,10,16,12,01,22.50
2019,10,16,12,02,25.70
2019,10,16,12,03,19.30
2019,10,16,12,04,19.30
2019,10,16,12,05,25.70
2019,10,16,12,06,17.70
2019,10,16,12,07,35.40
2019,10,16,12,08,33.80
2019,10,16,12,09,29.00
2019,10,16,12,10,30.60
2019,10,16,12,11,29.00
2019,10,16,12,12,22.50
2019,10,16,12,13,45.10
2019,10,16,12,14,38.60
2019,10,16,12,15,19.30
2019,10,16,12,16,27.40
2019,10,16,12,17,29.00
2019,10,16,12,18,38.60
2019,10,16,12,19,35.40
2019,10,16,12,20,22.50
2019,10,16,12,21,27.40
2019,10,16,12,22,25.70
2019,10,16,12,23,35.40
2019,10,16,12,24,24.20
2019,10,16,12,25,25.70
2019,10,16,12,26,32.20
2019,10,16,12,27,24.20
2019,10,16,12,28,30.60
2019,10,16,12,29,25.70
2019,10,16,12,30,20.90
2019,10,16,12,31,19.30
2019,10,16,12,32,27.40
2019,10,16,12,33,27.40
2019,10,16,12,34,14.50
2019,10,16,12,35,14.50
2019,10,16,12,36,20.90
2019,10,16,12,37,17.70
2019,10,16,12,38,20.90
2019,10,16,12,39,16.10
2019,10,16,12,40,19.30
2019,10,16,12,41,20.90
2019,10,16,12,42,9.60
2019,10,16,12,43,8.10
2019,10,16,12,44,11.30
2019,10,16,12,45,11.30
2019,10,16,12,46,19.30
2019,10,16,12,47,14.50
2019,10,16,12,48,14.50
2019,10,16,12,49,16.10
2019,10,16,12,50,17.70
2019,10,16,12,51,17.70
2019,10,16,12,52,12.90
2019,10,16,12,53,16.10
2019,10,16,12,54,16.10
2019,10,16,12,55,17.70
2019,10,16,12,56,19.30
2019,10,16,12,57,16.10
2019,10,16,12,58,22.50
2019,10,16,12,59,22.50
2019,10,16,13,00,17.70
2019,10,16,13,01,20.90
2019,10,16,13,02,25.70
2019,10,16,13,03,25.70
2019,10,16,13,04,14.50
2019,10,16,13,05,9.60
2019,10,16,13,06,12.90
2019,10,16,13,07,9.60
2019,10,16,13,08,9.60
2019,10,16,13,09,8.10
2019,10,16,13,10,9.60
2019,10,16,13,11,12.90
2019,10,16,13,12,11.30
2019,10,16,13,13,14.50
2019,10,16,13,14,11.30
2019,10,16,13,15,14.50
2019,10,16,13,16,16.10
2019,10,16,13,17,11.30
2019,10,16,13,18,14.50
2019,10,16,13,19,6.40
2019,10,16,13,20,4.80
2019,10,16,13,21,3.20
2019,10,16,13,22,3.20
2019,10,16,13,23,14.50
2019,10,16,13,24,12.90
2019,10,16,13,25,8.10
2019,10,16,13,26,11.30
2019,10,16,13,27,11.30
2019,10,16,13,28,16.10
2019,10,16,13,29,12.90
2019,10,16,13,30,9.60
2019,10,16,13,31,17.70
2019,10,16,13,32,14.50
2019,10,16,13,33,14.50
2019,10,16,13,34,16.10
2019,10,16,13,35,12.90
2019,10,16,13,36,12.90
2019,10,16,13,37,11.30
2019,10,16,13,38,14.50
2019,10,16,13,39,11.30
2019,10,16,13,40,11.30
2019,10,16,13,41,12.90
2019,10,16,13,42,24.20
2019,10,16,13,43,16.10
2019,10,16,13,44,17.70
2019,10,16,13,45,19.30
2019,10,16,13,46,19.30
2019,10,16,13,47,11.30
2019,10,16,13,48,17.70
2019,10,16,13,49,14.50
2019,10,16,13,50,11.30
2019,10,16,13,51,11.30
2019,10,16,13,52,17.70
2019,10,16,13,53,20.90
2019,10,16,13,54,14.50
2019,10,16,13,55,19.30
2019,10,16,13,56,16.10
2019,10,16,13,57,20.90
2019,10,16,13,58,12.90
2019,10,16,13,59,25.70
2019,10,16,14,00,17.70
2019,10,16,14,01,16.10
2019,10,16,14,02,20.90
2019,10,16,14,03,22.50
2019,10,16,14,04,19.30
2019,10,16,14,05,19.30
2019,10,16,14,06,16.10
2019,10,16,14,07,16.10
2019,10,16,14,08,11.30
2019,10,16,14,09,16.10
2019,10,16,14,10,12.90
2019,10,16,14,11,16.10
2019,10,16,14,12,11.30
2019,10,16,14,13,6.40
2019,10,16,14,14,20.90
2019,10,16,14,15,11.30
2019,10,16,14,16,12.90
2019,10,16,14,17,11.30
2019,10,16,14,18,19.30
2019,10,16,14,19,14.50
2019,10,16,14,20,11.30
2019,10,16,14,21,19.30
2019,10,16,14,22,12.90
2019,10,16,14,23,6.40
2019,10,16,14,24,8.10
2019,10,16,14,25,4.80
2019,10,16,14,26,6.40
2019,10,16,14,27,14.50
2019,10,16,14,28,16.10
2019,10,16,14,29,6.40
2019,10,16,14,30,8.10
2019,10,16,14,31,19.30
2019,10,16,14,32,8.10
2019,10,16,14,33,14.50
2019,10,16,14,34,14.50
2019,10,16,14,35,16.10
2019,10,16,14,36,12.90
2019,10,16,14,37,11.30
2019,10,16,14,38,11.30
2019,10,16,14,39,11.30
2019,10,16,14,40,8.10
2019,10,16,14,41,16.10
2019,10,16,14,42,14.50
2019,10,16,14,43,16.10
2019,10,16,14,44,17.70
2019,10,16,14,45,17.70
2019,10,16,14,46,16.10
2019,10,16,14,47,16.10
2019,10,16,14,48,17.70
2019,10,16,14,49,16.10
2019,10,16,14,50,19.30
2019,10,16,14,51,11.30
2019,10,16,14,52,14.50
2019,10,16,14,53,16.10
2019,10,16,14,54,14.50
2019,10,16,14,55,11.30
2019,10,16,14,56,14.50
2019,10,16,14,57,12.90
2019,10,16,14,58,8.10
2019,10,16,14,59,14.50
2019,10,16,15,00,6.40
2019,10,16,15,01,8.10
2019,10,16,15,02,17.70
2019,10,16,15,03,9.60
2019,10,16,15,04,3.20
2019,10,16,15,05,6.40
2019,10,16,15,06,3.20
2019,10,16,15,07,12.90
2019,10,16,15,08,9.60
2019,10,16,15,09,12.90
2019,10,16,15,10,9.60
2019,10,16,15,11,9.60
2019,10,16,15,12,9.60
2019,10,16,15,13,6.40
2019,10,16,15,14,4.80
2019,10,16,15,15,6.40
2019,10,16,15,16,6.40
2019,10,16,15,17,6.40
2019,10,16,15,18,6.40
2019,10,16,15,19,11.30
2019,10,16,15,20,9.60
2019,10,16,15,21,6.40
2019,10,16,15,22,1.60
2019,10,16,15,23,8.10
2019,10,16,15,24,4.80
2019,10,16,15,25,8.10
2019,10,16,15,26,6.40
2019,10,16,15,27,3.20
2019,10,16,15,28,3.20
2019,10,16,15,29,6.40
2019,10,16,15,30,8.10
2019,10,16,15,31,6.40
2019,10,16,15,32,11.30
2019,10,16,15,33,4.80
2019,10,16,15,34,6.40
2019,10,16,15,35,11.30
2019,10,16,15,36,11.30
2019,10,16,15,37,9.60
2019,10,16,15,38,4.80
2019,10,16,15,39,4.80
2019,10,16,15,40,4.80
2019,10,16,15,41,9.60
2019,10,16,15,42,6.40
2019,10,16,15,43,6.40
2019,10,16,15,44,8.10
2019,10,16,15,45,11.30
2019,10,16,15,46,12.90
2019,10,16,15,47,9.60
2019,10,16,15,48,8.10
2019,10,16,15,49,12.90
2019,10,16,15,50,9.60
2019,10,16,15,51,14.50
2019,10,16,15,52,16.10
2019,10,16,15,53,12.90
2019,10,16,15,54,12.90
2019,10,16,15,55,17.70
2019,10,16,15,56,8.10
2019,10,16,15,57,9.60
2019,10,16,15,58,8.10
2019,10,16,15,59,6.40
2019,10,16,16,00,1.60
2019,10,16,16,01,6.40
2019,10,16,16,02,6.40
2019,10,16,16,03,11.30
2019,10,16,16,04,14.50
2019,10,16,16,05,14.50
2019,10,16,16,06,9.60
2019,10,16,16,07,9.60
2019,10,16,16,08,8.10
2019,10,16,16,09,8.10
2019,10,16,16,10,9.60
2019,10,16,16,11,16.10
2019,10,16,16,12,14.50
2019,10,16,16,13,12.90
2019,10,16,16,14,12.90
2019,10,16,16,15,6.40
2019,10,16,16,16,8.10
2019,10,16,16,17,11.30
2019,10,16,16,18,8.10
2019,10,16,16,19,14.50
2019,10,16,16,20,16.10
2019,10,16,16,21,16.10
2019,10,16,16,22,11.30
2019,10,16,16,23,14.50
2019,10,16,16,24,19.30
2019,10,16,16,25,17.70
2019,10,16,16,26,8.10
2019,10,16,16,27,8.10
2019,10,16,16,28,14.50
2019,10,16,16,29,14.50
2019,10,16,16,30,8.10
2019,10,16,16,31,8.10
2019,10,16,16,32,4.80
2019,10,16,16,33,8.10
2019,10,16,16,34,8.10
2019,10,16,16,35,9.60
2019,10,16,16,36,9.60
2019,10,16,16,37,16.10
2019,10,16,16,38,11.30
2019,10,16,16,39,8.10
2019,10,16,16,40,17.70
2019,10,16,16,41,12.90
2019,10,16,16,42,11.30
2019,10,16,16,43,16.10
2019,10,16,16,44,14.50
2019,10,16,16,45,19.30
2019,10,16,16,46,16.10
2019,10,16,16,47,14.50
2019,10,16,16,48,9.60
2019,10,16,16,49,17.70
2019,10,16,16,50,12.90
2019,10,16,16,51,16.10
2019,10,16,16,52,17.70
2019,10,16,16,53,12.90
2019,10,16,16,54,16.10
2019,10,16,16,55,12.90
2019,10,16,16,56,14.50
2019,10,16,16,57,11.30
2019,10,16,16,58,14.50
2019,10,16,16,59,16.10
2019,10,16,17,00,17.70
2019,10,16,17,01,19.30
2019,10,16,17,02,16.10
2019,10,16,17,03,17.70
2019,10,16,17,04,11.30
2019,10,16,17,05,11.30
2019,10,16,17,06,17.70
2019,10,16,17,07,16.10
2019,10,16,17,08,16.10
2019,10,16,17,09,17.70
2019,10,16,17,10,19.30
2019,10,16,17,11,19.30
2019,10,16,17,12,19.30
2019,10,16,17,13,17.70
2019,10,16,17,14,16.10
2019,10,16,17,15,19.30
2019,10,16,17,16,19.30
2019,10,16,17,17,11.30
2019,10,16,17,18,17.70
2019,10,16,17,19,16.10
2019,10,16,17,20,14.50
2019,10,16,17,21,12.90
2019,10,16,17,22,16.10
2019,10,16,17,23,20.90
2019,10,16,17,24,20.90